Theta_e
325 323 318 313 316 319 317 318 320 319 319 319 318 317 318 318 317 316 316 314 313 311 311 311 310 310 310 310 310 310 310 310 309 309 308 308 308 308 308 308 308 308 307 307 308 308 307 307 307 307 307 308 308 309 309 309 309 308 308 307 306 306 306 306 305 306 306 305 304 304 303 303 302 301 301 301 301 301 301 301 302 303 303 304 305
325 324 319 316 317 319 318 319 319 319 319 319 319 319 318 319 318 318 318 317 315 315 315 314 314 313 312 313 312 312 312 312 311 311 310 310 309 309 308 308 308 308 308 308 308 308 308 308 307 307 307 307 307 308 309 309 308 308 307 307 306 306 305 305 305 305 306 306 305 304 303 302 301 301 300 301 301 301 301 301 301 302 303 303 304
325 324 320 320 321 320 319 319 318 318 319 318 319 320 319 319 320 320 320 319 318 317 318 318 317 317 316 316 315 314 314 314 314 313 313 313 312 311 310 310 309 308 308 309 309 308 308 308 308 308 307 307 307 307 308 308 308 307 307 306 305 305 304 304 304 304 305 305 305 304 302 301 301 300 300 300 300 301 302 302 301 301 302 303 304
323 321 320 322 322 319 320 320 318 319 319 317 318 320 320 320 320 320 321 320 319 319 319 319 319 319 318 318 318 317 317 317 317 316 316 316 315 315 314 313 312 310 309 309 308 308 309 308 308 308 308 307 307 307 307 308 308 308 308 307 306 305 304 303 303 303 303 303 303 302 301 300 300 299 299 300 300 300 301 301 302 302 301 302 303
321 321 321 322 322 319 320 319 318 319 320 318 319 320 320 320 320 321 321 321 320 319 319 319 320 319 318 318 318 318 319 319 319 319 318 317 317 317 317 316 315 314 312 310 309 309 309 309 309 309 308 308 308 307 308 308 308 308 308 308 307 306 305 305 304 302 301 301 301 301 300 299 299 299 298 299 300 300 300 300 300 301 302 302 303
322 321 321 320 321 321 321 319 318 320 319 319 320 319 319 320 321 321 321 320 320 320 320 320 320 319 319 319 318 318 319 319 319 319 318 318 318 318 318 318 317 317 315 313 312 311 310 309 309 309 309 309 309 308 308 308 308 308 308 308 307 307 306 305 304 302 300 299 299 299 299 299 299 299 298 298 298 299 300 301 300 300 300 301 302
322 321 321 321 321 322 322 320 320 319 318 320 320 318 318 320 321 321 320 320 320 320 320 320 320 320 320 320 319 319 319 319 319 318 317 318 318 318 318 318 318 318 317 316 314 313 311 310 310 310 309 310 310 309 308 308 307 307 307 307 307 306 305 304 303 302 301 299 298 298 299 298 298 298 298 298 298 298 298 299 300 300 300 300 300
322 322 322 323 322 321 320 320 319 319 319 320 320 319 319 320 321 321 321 320 320 320 320 320 320 320 320 320 320 320 320 319 319 317 316 316 318 319 318 318 318 318 318 317 316 315 314 312 312 311 310 310 310 309 309 308 308 307 307 307 306 305 304 303 303 301 300 299 298 298 298 298 297 297 297 298 298 298 298 298 299 299 300 300 299
322 322 322 322 321 320 320 320 320 319 320 320 319 319 318 318 319 320 321 320 319 320 320 320 320 320 320 319 319 319 319 319 319 317 316 316 317 318 319 318 318 318 318 317 316 316 315 314 314 312 311 311 310 310 309 309 308 307 307 306 306 304 303 302 301 300 299 298 298 298 298 298 297 297 298 297 297 298 298 298 298 298 298 299 299
316 317 318 319 319 319 320 320 319 319 319 319 319 318 318 318 318 319 320 320 319 319 318 318 318 318 318 318 318 318 318 318 318 317 317 317 317 318 318 318 318 318 318 317 316 316 316 315 315 314 312 311 311 310 309 308 308 307 307 306 305 304 302 301 300 299 298 298 298 298 298 298 297 297 297 297 297 297 297 297 297 298 297 298 299
310 310 311 312 314 316 317 317 316 317 318 318 317 317 317 317 318 318 318 318 316 315 315 316 317 317 316 317 317 317 318 317 317 317 317 318 318 318 318 318 318 318 318 317 317 316 316 315 315 314 313 312 311 310 309 308 307 307 307 306 304 303 301 300 299 298 298 298 298 297 297 297 297 297 296 296 296 296 297 297 297 297 297 297 298
310 309 308 309 311 312 313 314 314 314 314 314 314 315 315 315 316 316 316 315 315 315 315 316 317 317 317 317 317 317 318 318 319 319 319 319 319 319 319 319 319 319 318 317 317 316 316 315 315 314 313 312 310 309 308 307 307 307 307 306 304 302 301 300 299 299 299 298 298 298 297 297 297 296 296 296 296 296 297 296 296 296 296 296 296
310 309 308 309 310 311 311 311 311 312 314 314 314 315 316 316 316 316 315 315 315 315 315 315 316 317 318 318 316 316 315 315 316 317 319 320 320 321 320 320 319 319 318 318 317 317 316 315 315 314 313 311 310 309 308 308 307 306 306 305 304 302 301 300 300 299 299 299 299 298 297 297 296 296 296 296 296 296 296 296 296 296 296 296 296
309 308 308 307 308 309 310 309 308 310 312 312 312 314 315 316 316 315 314 314 314 314 314 314 314 315 315 315 314 312 310 309 308 309 311 315 318 320 320 319 319 318 318 318 317 316 316 315 314 313 312 310 309 309 308 308 307 306 306 306 303 302 301 300 300 300 300 299 299 298 297 297 297 296 296 296 296 296 296 296 296 296 296 296 296
308 308 307 307 307 308 308 308 307 308 309 309 310 311 312 312 313 313 313 313 314 315 315 315 314 313 313 313 313 310 307 305 306 307 308 310 313 316 318 319 318 317 317 317 316 315 314 314 313 312 310 309 309 308 307 306 306 306 306 305 303 301 301 300 300 300 299 299 299 298 298 297 297 296 296 296 296 296 296 296 296 296 296 296 296
308 308 308 307 307 307 307 307 307 308 308 308 308 308 308 308 309 310 311 312 313 313 313 312 312 311 311 312 312 311 308 306 307 308 310 310 312 315 317 318 318 317 317 317 315 314 313 313 311 309 309 309 308 307 306 305 305 305 305 304 303 301 300 300 300 300 299 299 299 298 298 297 297 296 296 296 296 296 296 295 295 295 295 295 295
307 307 307 307 307 307 307 307 308 308 308 308 308 305 304 303 304 304 305 305 305 306 307 308 309 310 309 309 310 310 309 309 310 311 311 311 312 313 315 316 317 316 316 315 313 312 312 311 310 308 308 307 306 305 304 304 304 305 304 303 302 301 300 300 300 300 299 299 298 298 297 297 296 296 296 296 295 295 295 295 294 294 294 294 294
307 307 307 307 307 306 306 307 308 308 308 308 306 303 302 302 302 301 301 301 300 301 302 304 307 309 310 311 311 309 307 309 311 312 312 312 311 311 313 314 315 315 314 313 312 311 310 309 308 307 306 306 305 305 304 304 304 303 303 302 301 301 300 300 299 299 298 298 297 297 296 296 296 295 295 295 295 294 294 294 294 293 293 293 293
307 307 307 306 306 306 306 307 308 308 308 307 306 305 304 303 303 302 302 301 301 301 300 301 302 305 307 309 311 308 306 307 310 312 312 312 312 311 312 313 314 314 313 312 311 310 309 308 307 306 305 305 305 304 304 303 303 302 302 301 301 300 299 298 298 297 296 296 295 295 295 295 294 294 294 294 294 294 294 294 293 293 293 293 292
307 307 307 306 306 306 306 307 307 307 307 307 307 306 305 303 303 302 302 302 302 302 301 300 300 301 304 307 309 309 308 308 309 311 311 312 313 313 312 313 314 314 313 311 309 309 308 308 307 306 306 305 304 303 303 302 302 302 301 300 299 298 297 296 295 295 295 294 294 294 294 294 294 294 293 293 293 293 293 292 292 292 292 292 292
306 306 306 306 306 306 306 306 306 306 306 306 305 305 304 303 303 303 303 303 303 303 302 301 300 300 301 305 307 309 310 310 310 311 312 313 313 313 313 313 313 313 312 310 308 308 309 308 307 306 305 304 303 302 302 302 302 301 300 298 297 295 295 294 294 294 294 294 294 294 294 293 293 293 292 292 292 292 291 291 291 291 291 291 291
305 305 305 305 305 305 305 306 306 305 305 305 304 304 304 305 305 305 304 304 304 304 303 302 301 301 301 303 305 308 309 310 310 311 312 313 313 313 313 313 312 311 310 309 309 308 307 306 305 304 303 302 302 302 301 301 299 297 296 295 294 294 294 294 294 294 294 294 293 293 292 292 292 292 291 291 291 291 291 290 290 291 291 291 291
304 304 304 305 305 305 305 305 305 305 305 304 304 304 305 305 305 305 305 305 305 304 303 303 303 302 302 304 306 308 309 310 310 311 311 312 313 313 313 312 311 310 309 308 308 306 304 303 303 302 301 301 301 300 298 297 295 294 294 294 294 294 294 294 294 293 293 292 292 291 291 291 291 290 290 290 290 290 290 290 290 290 290 290 291
302 303 303 304 304 304 305 305 305 305 305 305 305 305 305 305 305 305 305 305 305 304 303 303 304 304 304 305 307 309 310 310 310 310 311 311 312 312 312 311 310 309 308 307 305 303 302 302 301 300 299 299 298 296 295 294 294 294 294 294 294 294 293 293 293 292 292 291 291 290 290 290 290 290 290 290 290 290 290 290 290 290 290 290 291
302 302 302 303 303 303 304 304 304 305 305 304 305 305 305 304 304 304 304 304 303 303 304 304 305 306 306 308 309 310 310 310 310 310 310 310 311 311 311 311 311 309 306 304 302 301 300 299 298 297 296 295 295 295 294 294 294 294 293 294 293 293 293 292 292 291 291 290 290 290 290 290 290 290 290 290 290 290 290 290 290 290 290 290 290
302 302 302 302 302 303 303 304 304 304 304 304 304 304 304 304 303 303 303 303 303 304 304 305 306 306 307 309 310 310 310 310 310 310 309 310 310 310 310 309 309 307 304 302 300 299 297 296 295 295 295 294 294 294 293 293 293 293 293 293 293 292 292 292 291 291 290 290 290 290 289 290 290 290 290 290 290 290 290 290 290 290 290 289 290
302 302 302 302 302 303 303 303 303 303 303 303 303 304 304 304 303 304 304 304 304 304 304 305 306 307 308 310 310 309 309 309 309 309 309 309 309 307 306 306 305 304 302 300 297 296 295 295 295 295 295 294 294 294 293 293 293 293 293 292 292 291 291 291 290 290 289 289 289 289 289 290 290 290 290 290 290 290 290 290 289 289 289 289 289
301 302 302 302 302 302 303 303 303 303 303 303 304 303 303 304 304 304 304 304 304 304 305 306 306 307 308 309 308 308 308 308 308 308 308 307 305 303 302 302 301 299 298 297 296 296 296 296 296 295 294 294 293 293 293 293 293 293 293 292 292 291 290 290 289 289 289 289 289 290 290 290 290 290 290 290 290 290 290 289 289 289 289 288 288
301 301 302 302 302 302 302 302 302 302 303 303 303 303 303 303 304 304 304 304 304 305 306 307 306 306 307 307 306 306 306 307 306 305 304 303 302 301 300 298 297 296 296 296 296 296 296 295 295 294 293 293 293 293 293 293 293 293 292 292 292 291 290 290 289 289 289 289 290 290 290 290 290 290 290 290 290 290 290 289 289 289 288 288 288
300 300 300 301 302 302 302 302 302 302 302 302 302 302 302 302 303 303 303 304 304 306 306 306 305 306 306 306 306 306 305 305 304 303 302 301 300 298 297 296 296 296 297 297 296 296 295 294 293 293 293 293 293 293 293 293 293 293 292 292 291 290 290 290 289 289 289 289 290 290 290 290 290 290 290 290 290 290 290 290 289 289 288 288 288
299 300 300 300 300 301 301 302 302 302 301 301 301 302 302 303 303 303 303 304 305 305 305 305 305 306 306 307 306 305 303 303 303 302 300 299 297 296 296 296 297 297 296 296 295 294 293 292 293 293 293 293 293 293 293 293 292 292 292 291 290 290 289 289 289 289 289 289 289 290 290 290 290 290 290 290 290 289 289 289 289 289 289 288 288
299 299 300 299 299 300 300 301 301 301 301 301 301 302 303 303 302 303 304 305 305 305 305 305 306 306 306 306 305 304 302 301 300 299 297 296 296 296 296 296 296 296 295 295 293 292 292 292 293 293 292 292 292 292 292 292 291 291 290 290 290 290 289 289 289 289 289 289 289 290 290 290 290 290 290 289 289 288 289 289 289 289 289 289 288
300 300 300 300 300 299 300 300 300 300 301 302 302 303 303 303 302 303 305 305 304 304 305 305 306 306 306 304 304 303 302 300 298 297 296 296 296 296 296 296 295 295 294 293 292 291 292 292 292 292 292 292 292 292 292 291 291 290 289 289 289 289 289 289 289 289 289 290 290 290 290 290 290 290 289 289 289 289 289 289 289 289 289 289 289
300 300 300 300 300 300 300 300 300 300 301 302 303 303 303 303 303 304 304 304 304 304 305 305 305 304 304 302 302 301 300 298 297 296 296 297 297 296 296 295 295 294 294 293 291 291 291 291 292 292 292 292 292 292 291 291 290 290 289 289 289 290 289 289 289 290 290 290 290 290 290 290 290 289 289 289 289 289 289 289 289 289 288 289 289
299 300 300 300 300 300 300 301 301 301 301 302 302 302 303 303 303 303 303 303 303 304 304 304 303 302 301 300 299 299 298 297 297 297 297 297 296 295 295 294 294 294 293 293 292 291 291 291 291 291 292 292 292 291 291 290 290 290 290 290 289 289 289 289 290 290 290 290 290 290 290 290 290 289 289 289 289 289 289 289 289 289 289 289 289
297 298 299 300 300 300 300 300 301 301 301 302 302 302 303 303 303 303 303 303 303 303 303 302 300 299 299 298 297 297 297 297 297 297 296 296 295 294 294 294 294 294 293 293 292 291 291 291 291 292 292 292 292 291 291 291 290 290 289 289 289 289 289 289 290 290 290 290 290 290 290 290 290 290 290 290 290 290 290 290 290 290 290 290 289
296 296 297 298 299 300 300 300 300 300 301 301 302 302 302 303 303 303 303 303 302 302 301 300 299 298 297 297 297 297 297 297 296 296 295 294 294 294 294 294 294 294 293 293 292 290 291 291 292 292 292 292 292 292 291 290 289 288 288 288 288 289 289 290 290 290 290 290 290 290 290 290 290 290 290 290 290 290 290 290 290 290 290 290 290
295 296 296 297 298 299 300 300 300 300 301 302 302 303 303 303 303 303 303 302 301 300 300 299 298 297 297 296 296 297 296 296 295 294 294 294 294 294 294 294 294 294 294 293 292 290 291 291 291 292 292 292 292 291 290 289 288 287 286 287 288 289 290 290 290 290 290 290 290 290 290 290 290 290 290 290 290 291 291 291 291 291 291 291 291
295 295 296 296 297 298 299 300 300 300 300 302 302 303 303 303 302 302 301 300 299 299 298 297 297 297 297 297 296 296 295 295 294 294 294 294 294 294 294 294 294 293 293 293 291 290 290 291 292 292 293 292 291 290 289 288 287 286 286 286 288 289 290 290 290 290 290 290 290 290 290 291 291 291 291 291 291 291 291 291 291 291 292 292 292
295 295 296 297 298 298 298 299 299 299 300 302 302 301 301 302 302 301 299 299 299 298 297 297 296 296 297 296 296 295 295 295 295 295 294 294 294 294 294 294 294 293 293 292 291 290 291 292 292 292 292 291 290 289 288 287 287 287 286 286 287 289 290 290 290 290 290 290 290 290 291 291 291 291 291 291 291 291 291 291 291 292 292 293 293
296 296 296 297 298 299 299 299 299 299 300 300 301 301 302 301 300 299 299 299 298 297 296 296 297 296 296 296 296 295 295 295 295 295 295 294 294 294 294 294 294 293 293 292 292 291 291 292 292 292 291 290 290 289 288 287 287 287 286 286 288 290 290 290 290 290 290 290 290 291 291 291 291 291 291 291 291 291 292 292 292 292 293 293 294
297 297 296 297 298 299 299 299 300 300 300 300 301 301 300 299 298 298 298 298 297 296 297 297 296 296 296 296 296 296 296 295 295 295 295 295 294 294 294 294 294 293 293 292 291 290 291 292 292 291 290 290 290 290 289 288 287 287 286 286 288 290 291 290 290 290 290 290 291 291 291 291 291 291 291 291 292 292 292 292 293 293 293 293 294
298 297 297 297 298 299 299 300 301 301 301 300 299 298 297 297 298 298 297 297 296 297 297 297 296 296 296 296 296 296 296 296 295 295 295 295 295 294 294 294 293 293 293 292 290 290 291 292 292 291 290 290 290 289 288 288 287 286 286 287 289 290 290 290 290 290 290 290 291 291 291 291 291 291 291 292 292 292 293 293 293 293 293 294 294
299 298 297 297 298 299 300 300 300 299 299 298 297 297 297 297 297 297 296 296 297 297 297 297 297 297 296 296 296 295 295 295 295 295 295 294 294 294 294 293 293 293 292 290 290 290 292 292 291 291 290 290 290 289 289 288 287 286 286 287 290 290 290 290 290 290 290 290 291 291 291 291 291 292 292 292 292 292 293 293 293 293 293 294 294
299 298 298 298 298 299 299 298 298 298 297 297 297 297 297 296 296 296 296 297 297 297 297 297 297 297 296 295 295 295 295 295 295 295 294 294 294 294 294 293 293 293 291 289 290 291 292 291 291 291 291 291 290 290 289 289 288 286 286 288 290 290 290 290 290 290 290 290 291 291 291 291 292 291 292 292 292 292 293 293 293 293 294 294 294
298 298 298 298 298 298 298 297 297 297 297 296 296 296 296 296 297 297 297 297 297 297 297 297 297 296 296 295 295 295 295 295 294 294 293 293 293 293 294 293 293 292 290 289 291 292 292 291 291 292 292 291 291 290 290 289 288 286 286 288 290 290 290 290 290 290 290 290 290 291 291 291 292 292 292 292 292 292 293 293 293 293 294 294 294
298 298 297 297 297 297 296 296 296 296 296 296 296 296 297 297 297 297 297 297 297 297 297 296 296 296 295 295 295 295 295 294 294 293 292 292 292 293 293 293 292 290 289 290 291 292 291 291 292 292 291 291 290 290 290 289 288 287 287 289 290 291 290 290 290 290 290 290 290 291 291 291 291 292 292 292 292 292 293 293 293 293 294 294 294
297 297 297 296 296 296 296 296 297 297 297 297 297 297 297 297 297 297 297 297 296 296 296 296 295 295 295 295 295 294 294 293 292 292 291 292 293 293 293 292 291 289 289 290 292 291 291 291 292 292 291 290 290 290 290 289 288 287 287 289 291 291 291 290 290 290 290 290 290 290 291 291 291 292 292 292 292 292 292 293 293 293 294 294 294
297 297 297 297 297 297 297 297 298 298 298 298 297 297 297 297 297 297 297 296 296 296 296 295 295 295 295 294 294 293 292 292 291 290 291 292 293 293 292 291 289 288 289 291 291 291 291 292 291 291 290 289 289 289 289 289 288 288 287 289 290 291 291 291 290 290 290 290 290 290 291 291 291 292 292 292 292 292 292 292 293 293 293 294 294
297 297 297 298 298 298 298 298 298 298 298 298 297 297 297 297 297 296 296 296 296 295 295 295 294 294 293 293 292 291 291 290 289 290 291 293 293 293 292 290 288 288 289 291 291 291 291 291 290 289 289 288 288 288 288 288 288 287 287 288 290 291 291 291 290 290 290 290 290 291 291 291 291 292 292 292 292 292 292 292 293 293 293 293 293
297 297 297 297 298 298 298 298 298 298 297 297 297 297 296 296 296 296 295 295 295 295 294 294 293 292 291 291 290 290 290 289 289 290 292 293 294 293 291 290 288 288 289 290 290 290 290 289 289 289 288 288 288 288 288 288 288 287 287 288 290 291 291 291 290 290 290 290 290 290 291 291 291 291 292 292 292 292 292 292 292 292 293 293 293
Wind_Speed
26 26 27 29 29 29 28 25 22 22 21 18 17 16 14 13 13 11 11 10 10 11 10 10 10 10 9 8 7 7 5 4 3 3 3 3 3 4 4 4 3 3 3 3 2 1 2 2 2 2 1 1 3 4 4 5 5 5 5 7 8 9 11 12 15 16 14 14 15 14 13 13 12 12 12 11 10 10 11 13 14 14 15 15 15
25 25 27 29 29 30 29 25 24 23 22 20 19 18 17 15 13 13 12 11 10 10 9 9 10 9 9 9 8 8 7 6 5 5 5 4 4 5 5 5 5 5 5 4 4 4 4 3 4 3 3 2 1 2 4 5 6 5 6 7 8 10 11 12 14 16 16 15 16 16 15 15 14 13 14 14 13 12 11 11 12 13 13 13 13
26 26 28 30 30 31 29 26 26 25 24 23 22 22 21 18 17 16 14 13 12 11 10 9 9 9 10 10 10 9 9 8 7 7 6 6 6 6 7 7 7 7 6 6 6 6 5 5 4 4 4 4 3 2 3 5 6 6 7 8 9 10 12 13 14 16 18 17 16 17 17 16 16 15 15 15 15 15 14 12 12 13 14 14 13
26 28 31 32 31 31 29 27 27 27 26 25 24 24 22 20 20 18 16 15 14 13 12 11 10 10 10 11 11 10 9 8 7 6 6 7 7 8 8 9 9 9 9 8 8 7 7 7 7 5 4 4 5 4 4 4 5 6 7 8 10 11 12 14 15 15 17 18 17 17 17 17 17 17 17 17 16 16 15 15 14 14 14 15 14
24 29 32 32 30 30 29 27 27 28 29 27 25 23 20 20 21 20 19 19 17 15 15 14 14 14 14 13 12 11 10 9 9 8 8 8 9 9 9 9 10 10 11 11 10 10 9 9 9 8 6 5 6 6 6 6 6 6 7 9 10 12 13 14 15 16 16 18 17 16 17 17 17 17 18 18 17 17 16 16 16 17 16 15 15
22 26 28 28 28 28 28 27 26 27 28 27 25 21 20 23 23 22 22 21 19 18 18 17 17 17 17 17 16 14 13 12 12 11 10 11 11 11 10 10 11 11 12 12 13 12 12 12 11 10 9 7 7 7 6 7 7 7 8 10 11 12 13 14 15 16 16 17 17 17 17 18 18 17 17 19 20 20 20 18 17 17 18 18 16
20 21 22 23 25 24 24 26 26 26 27 27 26 22 23 26 25 24 24 22 21 20 19 18 19 19 19 18 18 17 16 15 15 14 14 16 16 15 13 13 13 13 13 14 14 14 14 14 14 13 11 10 9 8 8 8 9 9 9 10 12 12 13 14 15 16 17 17 17 17 18 18 19 19 18 19 20 21 22 22 21 19 19 20 20
17 19 20 19 19 19 20 22 23 24 26 27 25 24 25 27 25 23 23 21 21 21 19 19 19 19 20 19 19 18 18 18 17 17 19 20 19 18 17 16 16 16 16 16 16 16 16 16 16 15 14 12 11 10 10 10 11 11 12 12 13 13 14 15 16 17 17 17 17 18 18 19 20 20 20 20 20 19 19 22 24 23 21 21 21
16 17 18 17 17 16 17 18 19 21 23 25 24 25 26 26 24 23 22 20 20 21 22 22 22 22 23 23 22 22 22 22 21 22 23 23 21 20 20 20 19 19 18 18 18 18 18 17 17 16 15 14 13 13 12 12 13 13 14 15 15 15 15 16 16 16 16 16 17 18 19 19 20 21 22 22 22 21 20 21 23 24 24 24 22
13 14 14 14 15 16 17 17 17 18 20 21 21 21 22 23 23 23 21 20 20 22 22 23 23 23 22 21 21 22 22 23 24 25 25 24 22 21 21 21 21 21 21 20 21 21 20 19 19 18 17 15 15 14 13 13 13 14 15 16 17 17 17 16 16 16 17 17 19 20 21 21 22 23 24 24 24 24 23 23 24 24 26 26 24
11 11 11 11 12 14 15 15 14 14 15 16 16 16 18 19 19 18 17 17 18 18 19 19 19 17 16 16 16 17 18 19 21 22 21 21 21 22 23 23 23 23 23 23 23 22 22 21 21 20 19 17 15 14 14 13 13 14 16 18 18 19 18 17 17 18 19 20 21 22 23 24 24 25 27 27 27 27 26 26 27 27 28 29 28
12 11 11 11 11 11 12 12 12 11 11 11 12 12 13 13 14 14 14 14 14 14 14 15 15 14 14 13 13 13 14 14 16 17 17 17 18 20 22 23 23 24 24 24 24 24 24 24 24 22 20 17 15 14 13 12 13 15 18 19 19 20 19 19 19 20 22 23 24 25 26 27 28 28 29 29 30 30 30 30 30 31 31 32 33
11 10 9 11 12 11 12 12 12 12 12 12 11 11 12 12 12 12 12 11 11 11 12 12 12 12 12 11 10 11 12 13 14 15 16 17 17 18 19 21 23 24 25 25 26 26 26 26 25 23 20 17 15 14 14 14 15 17 19 20 21 21 20 20 21 22 23 24 26 28 29 30 31 31 31 31 32 32 33 33 33 34 35 36 37
11 10 8 9 11 11 13 13 12 12 13 13 12 12 12 12 12 11 11 11 11 11 11 12 12 12 11 10 10 11 12 13 14 14 15 16 17 18 19 20 21 23 25 26 27 28 28 27 26 23 18 16 14 14 15 16 17 19 21 22 22 21 20 20 21 22 23 25 28 30 30 31 33 33 33 33 33 34 35 36 36 37 38 39 40
10 10 9 8 10 12 13 13 13 14 14 14 14 13 12 12 12 12 11 11 11 11 11 12 13 12 12 11 11 11 11 11 12 12 13 14 15 17 19 19 20 21 24 25 26 27 27 27 24 19 16 14 15 15 16 17 19 20 22 23 22 21 20 21 22 24 25 27 29 31 32 33 34 35 35 35 35 35 35 37 38 39 41 42 42
8 10 10 9 10 12 12 12 14 16 17 16 16 15 15 15 15 14 14 13 13 13 13 14 14 13 13 12 12 12 12 11 11 11 12 12 13 14 16 16 18 20 22 25 26 26 26 25 20 15 14 15 16 17 18 19 20 21 22 22 22 21 21 23 25 26 27 29 30 32 33 35 36 37 37 37 38 39 39 40 41 41 43 45 45
6 7 9 10 10 11 12 12 13 15 16 15 15 14 14 14 14 13 13 12 12 13 13 13 13 12 12 12 12 12 12 12 12 12 12 12 12 12 12 12 13 17 21 24 25 24 23 21 17 15 15 17 17 19 20 20 21 22 22 21 21 21 22 24 26 27 29 30 31 32 34 35 37 39 40 40 41 41 42 43 42 41 42 43 43
7 7 7 8 10 11 12 12 13 14 15 14 13 11 9 9 9 9 8 8 8 9 11 13 13 12 11 11 12 13 13 14 14 14 14 14 13 13 12 11 11 16 20 22 22 21 19 17 16 16 17 18 19 20 21 21 21 21 20 21 22 23 24 26 27 28 30 31 32 34 35 37 38 39 39 39 38 36 36 37 36 34 35 36 37
8 8 7 7 7 8 11 12 12 13 13 13 12 10 8 8 8 7 7 6 6 8 10 12 13 14 13 13 13 13 14 14 15 16 16 16 15 14 14 12 13 17 20 22 22 21 18 16 17 18 19 20 21 21 21 21 21 20 21 23 25 26 28 30 31 32 34 35 36 36 37 36 35 34 33 31 29 27 27 27 26 27 28 30 30
10 8 7 7 6 6 8 10 10 10 10 11 11 11 12 12 11 9 9 10 10 11 12 13 14 15 15 15 14 14 14 15 16 17 17 17 16 15 14 14 15 17 21 22 21 19 17 17 19 20 21 21 21 21 21 21 21 22 24 26 28 30 31 33 35 36 36 37 36 36 34 32 30 29 27 26 24 23 22 21 21 21 23 25 25
15 14 12 11 9 9 9 9 9 10 10 11 13 14 15 14 13 13 13 14 14 15 15 15 15 16 16 17 16 16 17 17 17 18 17 16 16 14 14 15 17 18 20 20 18 16 17 18 19 20 20 20 20 21 21 22 23 25 27 29 30 31 33 33 34 34 34 33 32 32 30 29 28 27 26 25 24 22 20 19 19 19 20 22 23
16 16 16 15 14 13 12 12 12 12 12 13 15 16 15 14 15 16 17 17 18 19 19 19 17 17 18 19 19 18 19 18 17 16 16 15 15 14 15 16 18 18 18 18 17 17 18 19 19 20 20 20 21 22 23 24 26 27 28 28 29 30 30 30 30 29 29 29 29 29 28 27 27 26 26 25 23 21 19 19 19 19 20 20 22
15 15 16 16 15 13 14 14 15 15 14 15 16 17 16 16 16 17 18 19 20 21 22 21 19 18 18 19 19 19 18 17 16 15 14 15 15 15 16 16 17 17 16 15 15 17 19 19 19 19 19 20 22 23 24 25 26 26 27 27 26 26 26 26 26 27 27 27 27 26 26 25 25 25 25 24 23 21 21 21 21 21 22 22 22
17 17 17 18 18 17 17 17 17 17 17 17 18 19 18 18 18 18 19 20 22 23 23 22 20 19 19 18 18 18 17 16 15 14 14 15 16 17 17 17 16 16 15 15 17 18 19 18 18 19 20 22 23 24 24 24 24 24 24 24 24 24 24 25 25 26 26 26 25 25 25 25 25 25 25 24 24 24 24 25 25 25 25 26 26
19 20 20 20 19 20 20 21 21 21 20 20 21 21 21 21 21 21 22 22 23 24 23 23 22 20 18 18 17 17 17 16 15 15 16 16 16 17 18 18 17 17 16 16 17 18 18 17 18 19 20 21 21 21 21 21 21 21 21 21 22 23 24 25 25 25 25 25 26 26 27 26 26 26 26 26 26 27 27 28 28 28 29 30 31
19 19 20 20 19 19 20 21 21 22 22 22 23 22 21 21 21 22 22 23 24 24 25 25 23 20 18 16 16 16 16 16 17 17 17 17 18 19 19 19 17 16 15 14 15 16 16 16 17 17 17 18 18 18 18 18 18 19 20 22 23 24 24 25 25 25 26 27 27 28 28 27 26 25 25 26 27 27 28 29 30 31 31 32 33
18 18 18 18 18 18 19 19 19 20 21 22 22 22 22 22 22 21 22 22 24 25 27 27 26 22 18 16 16 16 17 18 18 18 18 20 21 21 18 16 14 14 14 14 14 15 14 14 15 15 15 16 15 16 16 17 18 20 21 22 23 23 22 23 23 24 25 26 27 27 27 26 26 26 26 26 27 27 27 28 30 31 31 32 33
17 17 18 18 18 17 17 18 18 19 20 21 23 24 24 24 24 23 22 23 23 24 27 29 29 24 18 16 15 17 19 19 20 21 22 22 20 16 13 12 12 13 13 13 13 13 13 14 14 14 14 14 14 15 16 17 18 19 19 19 19 19 20 21 22 23 24 25 26 27 27 27 27 27 27 28 28 27 26 26 28 30 31 31 31
20 19 18 19 19 19 19 19 19 20 21 22 23 24 24 23 23 23 23 22 21 20 21 22 21 18 15 15 17 19 21 23 23 22 21 17 13 11 11 12 11 11 11 11 11 12 12 13 13 13 13 13 13 14 14 15 16 16 17 17 18 19 20 21 22 22 23 25 26 27 28 28 29 29 29 29 29 27 26 26 27 29 30 30 30
25 25 24 22 21 21 21 22 21 21 21 21 22 23 24 23 22 21 21 19 18 17 17 18 18 16 15 16 17 18 20 21 20 18 16 13 12 12 11 10 9 9 9 9 10 10 11 11 11 11 11 11 12 13 14 15 16 17 18 19 20 21 21 21 22 23 24 25 26 27 28 28 29 29 29 30 29 28 27 26 27 28 29 29 30
28 29 28 28 27 25 23 23 22 22 23 22 21 21 23 23 22 21 21 20 19 18 18 19 18 16 15 14 13 13 14 15 15 14 14 12 11 10 9 8 7 7 7 8 8 9 10 9 9 8 9 11 12 13 15 16 17 19 20 21 20 20 21 21 22 23 24 24 25 26 26 27 27 28 28 28 29 29 28 27 27 27 28 29 29
29 28 28 28 29 28 27 26 24 22 22 21 20 22 24 24 23 21 20 19 17 17 17 17 16 14 13 11 11 12 14 14 14 13 13 11 9 7 6 5 6 6 6 7 7 7 6 6 6 8 11 13 14 14 15 16 17 18 20 21 21 21 21 22 23 23 23 23 23 24 25 26 26 27 27 27 27 27 27 27 27 26 27 28 28
26 25 24 25 27 28 28 27 25 23 20 18 18 20 23 24 22 20 18 16 15 15 15 14 12 12 12 11 11 11 12 14 14 12 10 8 6 5 5 5 5 5 6 6 5 5 5 6 9 11 13 14 14 14 15 16 17 18 19 21 22 22 22 22 22 21 20 21 22 23 24 24 25 25 25 25 25 25 26 26 26 26 26 27 27
27 25 23 24 25 25 25 24 23 21 19 16 15 16 18 19 19 18 17 16 15 15 14 12 12 12 13 13 14 13 13 14 13 10 8 6 6 6 6 5 5 5 5 4 5 7 8 10 11 12 13 13 13 14 15 15 16 18 20 21 22 22 21 20 19 19 19 20 22 23 23 23 23 23 24 24 24 24 25 25 25 25 25 26 26
32 28 26 24 24 24 24 22 20 20 20 18 17 17 18 18 18 17 17 16 16 16 15 15 15 15 15 16 17 15 14 13 11 8 7 7 7 7 7 6 4 3 3 6 8 10 10 11 11 12 12 12 13 13 14 14 16 18 20 21 21 21 20 19 19 19 20 22 23 23 23 23 23 23 23 24 24 24 25 24 24 24 24 24 25
37 34 31 28 26 24 24 22 20 21 21 21 20 20 20 19 19 19 18 16 15 16 17 19 20 20 19 19 18 16 14 11 9 8 8 8 8 7 6 5 2 2 5 8 10 10 10 10 10 11 11 12 12 12 12 14 16 18 19 20 20 20 20 19 20 21 22 23 24 24 23 23 23 22 23 23 23 23 24 24 23 23 23 23 23
38 37 35 33 29 26 24 23 22 21 21 21 22 22 21 21 21 20 18 17 17 18 20 23 25 25 24 21 18 15 13 10 9 9 9 8 7 6 4 2 1 4 7 9 10 10 10 10 9 10 10 11 11 11 12 13 15 17 19 21 22 22 21 20 20 22 23 24 25 25 24 23 23 22 22 23 23 23 23 23 23 23 22 22 22
35 33 32 32 31 29 26 25 24 22 20 21 22 24 24 23 23 21 20 20 21 23 24 26 27 26 25 22 17 14 12 11 10 10 10 9 7 5 3 1 2 4 7 9 11 11 10 9 8 9 10 10 11 11 12 13 16 19 21 23 23 23 22 21 21 22 23 25 26 26 24 23 22 21 22 22 22 22 22 22 22 22 22 21 20
31 30 26 24 27 29 28 26 24 22 21 22 25 28 28 26 23 23 23 23 24 25 26 28 27 24 21 18 15 14 13 12 12 12 10 8 7 4 3 2 2 4 6 9 11 11 10 8 7 8 9 10 10 10 12 15 18 21 22 24 25 24 23 23 23 23 24 26 27 26 24 23 22 22 21 21 21 21 21 21 21 20 20 20 19
22 26 23 18 17 21 24 24 23 24 26 27 28 28 26 24 24 25 26 26 26 26 26 26 23 19 16 15 14 14 14 13 12 11 10 8 6 5 4 4 4 5 6 8 11 11 9 7 7 8 8 8 9 10 13 17 20 22 23 25 25 25 24 24 24 24 25 27 27 26 24 22 22 22 22 21 21 21 21 21 20 18 17 18 18
15 21 24 20 14 15 18 19 18 19 23 27 26 23 22 25 28 29 28 26 25 26 25 22 19 17 16 15 15 14 12 12 12 11 11 9 7 6 6 6 5 5 6 8 11 11 9 7 7 7 7 8 9 11 15 18 21 23 24 25 26 26 25 25 25 25 26 27 27 26 24 22 23 24 24 22 21 20 20 20 19 17 16 17 16
13 18 23 21 16 14 16 16 14 15 18 21 22 23 26 30 31 30 27 26 26 26 24 21 19 19 18 16 14 13 12 11 10 11 11 10 8 7 7 7 6 5 7 9 11 10 8 8 7 6 7 8 10 13 16 19 21 24 25 26 26 26 25 25 26 27 27 27 26 25 24 23 23 24 24 22 21 20 20 19 19 17 16 16 14
15 18 22 22 18 15 14 14 15 17 20 22 23 26 29 30 29 27 27 27 27 25 22 20 18 18 17 16 14 12 11 10 9 9 9 8 8 7 7 6 6 6 8 9 10 9 8 7 6 6 7 9 10 13 16 19 22 24 25 26 27 26 25 25 26 27 27 27 27 25 24 23 23 23 23 21 20 20 19 18 17 15 14 14 12
17 18 20 21 19 17 16 17 19 21 22 23 24 26 26 26 26 26 26 25 24 22 19 17 16 15 15 15 14 12 11 11 10 9 9 8 8 7 6 7 7 7 8 9 8 7 6 6 6 6 7 9 11 13 16 19 22 24 25 26 27 26 25 25 26 26 27 28 27 26 24 23 22 22 22 21 20 19 18 17 15 13 12 11 10
20 20 21 21 21 20 20 21 22 23 23 25 26 26 26 25 25 23 22 21 20 19 18 17 16 15 15 15 14 13 12 12 11 10 8 7 7 7 7 8 8 7 8 7 6 6 5 5 6 6 8 10 11 13 15 18 21 23 24 25 26 25 24 25 25 25 26 27 28 27 25 23 21 21 21 20 19 19 17 16 14 13 12 11 10
22 22 22 22 23 24 25 25 26 26 27 27 26 25 24 23 21 20 19 19 19 19 18 17 16 16 15 15 14 14 14 13 11 10 8 8 8 9 9 9 8 7 7 6 5 4 5 5 6 7 9 10 11 13 15 17 20 22 23 24 23 22 23 24 24 24 25 26 27 27 26 23 21 20 20 19 18 17 17 15 13 12 11 11 10
29 29 29 30 30 30 29 28 27 25 24 23 23 22 21 20 18 17 17 17 18 18 17 16 15 15 15 15 15 15 14 13 12 10 9 9 9 9 9 8 6 6 5 4 3 3 4 5 6 7 8 9 10 12 14 17 19 21 23 23 22 21 22 24 23 23 23 25 26 27 26 23 20 19 18 18 18 17 17 15 13 11 10 9 8
35 34 33 32 30 28 26 25 23 23 22 22 21 21 20 18 17 17 17 17 16 15 15 15 15 15 15 15 15 14 14 13 12 10 9 8 8 8 8 6 5 4 3 2 2 2 3 5 6 7 8 8 10 12 14 17 19 20 22 23 22 21 22 23 23 22 23 24 24 25 25 23 20 18 17 17 16 17 17 16 14 12 10 8 7
29 28 27 26 24 24 23 22 21 20 20 19 19 19 19 18 18 18 18 17 16 15 16 16 15 15 14 14 14 13 13 11 10 9 8 7 8 8 6 4 3 2 1 1 2 3 5 6 7 7 7 8 10 13 15 17 18 19 21 22 22 22 22 23 23 22 22 23 23 24 24 22 20 17 16 15 15 15 16 16 15 13 12 10 8
23 22 21 21 20 19 18 18 18 18 17 17 17 17 17 18 18 18 18 17 16 16 15 14 13 12 12 11 11 11 11 10 9 9 9 8 8 8 5 2 1 2 2 2 3 4 5 6 6 5 6 8 11 14 16 17 18 19 20 21 22 22 22 23 23 22 23 23 23 23 23 22 20 18 16 15 14 15 15 16 15 14 13 12 11
18 17 17 16 15 15 15 15 16 16 16 16 15 15 16 17 17 17 16 15 15 13 12 11 10 9 8 8 8 9 9 9 9 9 9 9 8 7 4 2 2 3 4 4 4 4 5 5 4 5 6 9 12 14 16 17 18 18 19 20 21 21 22 22 23 22 23 23 23 23 23 21 20 19 17 15 14 14 15 15 15 15 14 14 13
Wind_Direction
207 206 202 204 207 207 206 202 201 206 211 215 215 208 206 209 210 211 209 202 190 181 174 168 165 162 158 155 153 153 156 160 165 175 178 183 189 191 190 184 185 196 207 215 232 266 281 286 286 286 299 83 76 59 42 22 14 14 7 356 347 341 337 333 327 326 329 327 326 326 322 318 318 313 305 297 288 280 273 269 267 265 265 264 263
207 213 208 207 212 210 207 203 201 204 210 213 214 212 213 216 218 222 226 225 214 201 194 188 185 183 179 179 181 183 189 195 202 209 212 218 224 231 233 223 219 222 222 219 226 243 252 244 243 254 265 271 318 20 17 10 5 2 356 346 341 336 331 329 325 321 322 324 323 323 322 321 320 318 313 307 303 298 286 276 271 267 265 262 260
214 216 209 207 211 208 204 205 205 206 211 213 213 211 211 215 221 225 228 228 222 215 211 209 206 203 200 201 204 205 206 207 212 220 227 234 238 245 252 250 245 243 239 232 233 248 257 253 249 244 244 256 271 311 348 355 352 347 342 335 331 329 325 322 320 317 318 322 323 322 321 321 320 318 315 312 310 307 299 290 281 273 268 265 262
206 203 202 206 211 207 205 206 206 207 210 211 211 208 206 211 220 226 230 231 229 227 225 227 229 228 226 225 223 223 222 219 219 222 231 243 246 248 253 256 256 257 257 252 247 251 259 265 270 266 258 261 267 278 306 328 331 329 328 327 325 322 319 317 316 315 315 317 321 322 320 318 317 316 313 310 307 305 302 298 293 285 278 273 272
195 195 199 205 209 209 208 208 209 210 210 210 210 209 207 211 217 224 230 233 234 235 234 233 236 240 243 244 245 246 243 238 235 233 238 250 254 255 255 257 259 261 263 263 263 262 262 265 269 271 271 273 271 272 280 294 305 312 316 320 319 317 316 315 314 313 312 313 317 319 318 315 313 313 312 308 305 302 300 299 298 295 289 283 279
194 200 203 206 210 212 211 212 214 213 211 210 209 212 217 217 217 221 227 232 236 237 237 238 242 246 249 251 253 254 252 249 250 253 259 264 265 264 261 262 265 267 267 269 270 270 269 268 267 267 269 274 278 279 277 282 289 296 305 311 312 311 312 313 312 311 310 311 313 315 316 314 313 313 312 310 310 308 304 301 298 296 294 291 285
199 206 207 208 213 215 212 213 215 215 216 213 210 216 222 217 215 220 225 231 237 238 241 245 248 252 255 257 257 257 256 254 255 263 270 270 267 265 263 263 266 268 269 269 270 270 270 270 270 270 270 274 281 285 285 287 290 292 296 303 308 310 312 312 311 310 309 310 311 312 314 316 316 315 313 311 309 307 305 303 301 298 294 292 290
203 206 209 212 215 218 216 214 216 221 223 219 217 224 226 221 223 227 228 230 233 237 245 250 252 255 258 259 260 261 260 258 258 266 273 270 263 259 259 260 262 264 265 265 266 268 269 271 273 274 275 278 282 286 293 297 297 295 298 304 310 311 310 310 309 308 308 309 311 313 314 314 315 313 312 312 310 305 303 304 304 304 300 296 296
198 204 211 217 219 220 218 214 216 223 225 224 226 229 230 229 231 233 235 237 236 240 247 251 253 257 259 261 262 261 260 259 260 267 274 273 267 261 259 259 260 261 260 260 260 262 266 270 272 273 275 277 280 285 293 299 299 299 301 307 310 310 310 310 308 305 305 307 310 312 312 313 315 316 316 320 321 316 311 309 306 305 304 301 299
188 196 204 211 216 219 218 216 219 224 226 227 227 225 226 229 230 233 241 245 244 245 249 251 253 256 258 260 260 259 258 258 260 265 270 274 273 269 266 264 264 263 260 257 256 257 261 266 268 270 271 271 274 282 290 295 300 302 304 307 308 309 310 310 307 306 307 310 313 315 315 316 319 322 321 323 323 319 316 315 311 309 308 304 300
173 179 182 188 197 204 207 209 214 220 220 220 221 221 224 229 233 238 243 242 241 242 245 248 250 252 255 258 258 258 258 258 260 263 266 271 272 270 269 269 269 266 260 256 255 256 258 262 264 264 265 265 270 278 286 291 296 300 302 305 306 307 310 311 311 312 315 317 318 320 320 319 320 322 323 322 320 319 319 319 317 316 315 311 306
162 165 168 171 176 179 182 186 191 197 200 201 204 208 213 219 225 229 230 230 230 232 236 240 243 245 249 252 257 263 265 263 261 261 261 265 268 269 270 271 271 268 262 258 257 258 260 259 258 258 258 262 269 278 285 290 294 298 301 304 305 306 308 310 312 315 318 319 319 319 320 319 319 321 322 321 318 317 317 317 317 316 314 312 310
160 163 169 173 175 172 169 173 178 183 184 183 185 189 194 198 203 210 217 222 225 228 233 236 238 244 248 254 265 273 273 270 265 260 258 258 263 269 271 271 271 268 263 260 259 259 259 255 252 252 253 259 270 280 288 292 295 298 301 303 303 303 305 308 311 313 314 314 314 315 317 317 317 318 319 317 315 314 314 313 314 313 310 309 308
171 173 179 183 184 181 178 181 188 191 189 188 189 191 194 197 201 208 217 224 228 234 240 244 248 255 262 270 279 280 277 272 266 262 259 259 261 265 266 268 267 263 260 259 257 255 253 250 247 246 249 258 272 282 287 292 295 298 301 300 299 300 303 305 305 305 305 306 308 310 313 313 312 313 313 312 310 310 311 310 309 308 307 306 305
182 187 192 189 186 189 190 192 198 200 197 197 197 198 202 205 208 215 221 226 230 235 242 251 258 262 268 275 280 281 279 273 269 270 272 271 268 263 261 263 263 258 256 256 251 246 244 243 242 244 253 265 276 279 281 285 289 293 295 295 295 298 301 300 299 298 299 302 303 305 308 308 308 308 308 307 306 305 305 304 303 303 303 302 301
188 193 199 198 193 197 200 201 203 202 202 204 208 213 220 222 222 225 228 231 236 242 248 254 258 263 268 270 272 276 278 276 278 284 288 287 280 268 260 261 261 258 253 248 240 233 233 238 242 250 262 269 271 272 274 277 281 286 289 289 292 296 297 296 295 296 297 298 299 301 302 303 303 303 303 303 302 301 300 298 297 298 297 297 297
190 193 202 206 206 208 209 210 211 209 207 210 217 223 221 217 218 221 223 227 235 241 246 250 253 259 264 265 267 273 277 280 284 289 292 294 290 280 271 268 264 257 248 240 233 227 229 237 248 257 263 265 266 267 270 273 278 283 286 288 292 293 291 290 289 290 292 293 294 295 296 297 297 297 297 297 297 297 296 295 295 296 294 294 295
202 207 214 213 214 220 222 226 230 228 224 225 228 227 219 217 221 220 220 229 235 240 247 249 251 254 258 262 266 272 278 282 284 286 289 292 294 292 289 284 268 250 238 232 230 229 231 237 243 247 252 257 262 266 269 272 276 281 283 286 287 286 284 284 284 285 286 287 288 289 290 291 291 291 292 292 292 293 292 292 293 293 291 291 293
212 213 216 213 213 218 218 220 227 232 236 239 237 238 250 263 260 247 249 263 268 267 264 259 256 257 257 258 261 268 275 279 281 283 285 288 292 294 293 284 265 248 241 237 235 235 237 240 241 244 249 256 261 264 266 270 275 280 283 284 285 285 285 287 288 288 289 289 290 290 290 290 291 291 292 292 292 292 291 291 293 293 292 293 295
230 228 225 218 215 219 213 210 215 222 229 234 237 248 265 272 272 272 278 284 286 286 282 273 265 261 259 259 260 264 269 272 275 279 280 281 283 286 286 279 267 256 248 242 238 240 247 250 250 252 256 259 261 263 266 271 277 281 283 284 285 286 287 288 289 291 292 293 294 294 294 295 296 297 298 298 298 298 298 297 297 296 296 297 298
244 245 247 244 243 243 235 227 227 226 228 238 250 261 270 275 279 285 288 289 290 291 290 287 277 266 262 260 259 261 263 265 268 272 274 274 275 276 276 269 262 257 250 244 244 251 256 255 253 254 256 257 259 263 267 272 277 279 281 282 283 285 286 287 289 291 293 294 295 296 296 297 299 300 301 302 303 304 304 303 302 300 298 297 297
251 251 253 255 254 253 251 251 250 246 244 251 258 262 267 272 276 281 284 286 287 290 293 293 286 272 264 261 260 261 263 264 265 266 268 267 265 264 263 258 255 253 249 248 252 255 253 251 249 249 251 254 259 265 269 273 277 279 281 282 284 286 288 290 292 294 295 297 299 298 298 298 299 300 302 304 304 303 301 300 299 298 295 292 292
252 252 252 254 256 256 256 257 258 257 256 257 259 259 262 267 270 273 276 277 280 286 290 289 284 276 270 267 267 267 266 264 262 260 259 259 256 253 252 252 251 248 246 249 253 249 245 245 246 249 254 260 266 271 275 278 280 282 285 287 289 292 294 295 297 299 301 302 302 300 299 299 300 301 303 303 302 300 298 296 295 294 291 288 286
260 257 254 253 255 257 258 258 257 259 260 259 258 257 259 261 263 265 269 273 277 282 283 283 284 283 278 276 276 272 267 262 258 254 254 253 250 249 248 247 245 244 243 245 246 244 245 249 254 260 265 269 272 275 278 282 285 288 290 293 295 297 298 300 302 303 304 304 303 301 300 300 301 300 300 298 296 295 294 293 291 290 288 286 284
266 261 257 255 255 255 256 255 256 258 259 259 259 260 261 261 261 263 268 272 275 276 276 276 279 280 279 279 277 270 262 258 255 252 250 247 246 249 247 242 240 243 244 244 245 249 254 260 263 265 268 270 274 278 281 284 287 290 293 295 299 301 301 302 303 302 302 301 301 301 300 300 299 298 296 295 294 293 293 292 291 289 287 285 284
260 257 252 250 251 253 253 253 253 255 258 259 260 261 262 262 262 263 265 267 269 270 271 271 270 271 274 274 269 262 259 255 250 247 245 242 239 240 237 233 236 245 248 250 254 258 260 261 263 265 269 274 278 280 282 285 288 291 295 299 301 301 301 300 299 298 298 299 300 299 299 299 298 297 296 294 292 292 293 293 293 292 291 289 287
246 244 244 244 245 245 247 249 252 256 258 259 259 260 261 263 264 265 265 264 264 265 267 266 262 260 261 260 259 259 258 251 243 239 239 236 230 227 229 232 240 248 252 253 256 257 258 262 268 272 277 281 283 286 289 292 295 298 300 300 300 299 298 297 296 297 298 299 299 298 298 298 297 297 296 293 291 291 292 292 293 294 294 293 291
242 238 236 235 234 235 236 238 243 248 254 258 261 263 263 264 266 267 268 268 267 267 266 263 256 251 252 256 260 261 255 245 235 230 230 228 225 225 233 241 245 249 250 250 252 256 262 271 277 281 284 287 289 293 296 298 299 300 301 301 300 301 301 300 301 301 301 300 299 299 299 299 298 298 298 295 293 292 292 291 293 295 297 297 294
255 251 244 236 234 236 239 242 245 247 251 257 261 263 264 264 265 267 270 273 272 270 267 265 262 261 265 269 272 267 251 233 223 221 221 221 224 232 238 239 238 240 242 245 253 263 273 279 281 283 285 288 293 298 302 304 304 304 305 305 305 305 305 305 305 306 305 304 303 303 302 301 300 300 299 298 297 296 295 295 296 298 299 299 296
259 259 256 250 245 242 242 245 247 247 249 253 258 261 262 262 262 265 269 272 269 264 267 274 279 278 274 271 272 268 248 227 216 216 219 221 226 228 227 226 229 235 243 256 269 277 281 282 280 283 292 301 309 312 312 310 309 308 308 307 307 306 306 306 306 306 305 305 305 306 306 305 304 304 303 301 300 299 298 297 298 298 298 298 297
259 258 258 258 256 253 252 251 248 247 249 252 255 258 258 257 259 263 264 260 256 257 265 273 275 274 272 264 251 236 227 221 217 216 216 216 216 214 213 219 233 248 262 274 281 282 281 279 283 298 317 324 322 319 316 313 312 312 311 310 310 311 312 311 310 308 307 307 308 309 309 309 308 307 306 304 302 301 299 299 298 297 296 295 294
257 256 255 255 255 255 255 253 250 249 250 251 251 252 253 255 259 259 252 246 247 255 263 267 265 263 262 252 229 212 208 209 209 205 202 199 199 202 213 232 249 265 273 275 278 279 279 287 310 331 338 333 325 321 319 319 319 318 317 317 318 319 320 319 317 315 313 313 313 313 312 311 310 308 307 306 305 304 302 300 298 296 295 294 293
248 246 245 246 248 249 250 250 250 247 246 247 248 247 249 252 253 247 238 237 246 255 257 254 249 246 238 224 217 215 205 197 195 193 188 187 194 207 227 242 251 262 269 275 288 304 322 336 343 344 340 332 326 324 325 325 323 323 324 324 325 325 326 324 322 319 318 317 317 315 314 313 311 310 310 309 307 305 303 301 299 298 297 296 295
242 239 236 237 240 242 245 247 245 241 239 241 244 242 241 243 243 241 240 244 248 248 242 231 224 227 219 202 197 199 195 188 186 184 182 191 208 219 227 235 245 257 273 304 333 348 352 348 345 343 337 331 329 328 327 326 328 332 334 333 331 331 330 328 326 324 324 324 322 320 318 317 316 316 315 313 311 308 306 304 303 301 300 298 297
242 238 235 235 236 239 241 241 239 235 235 238 241 241 238 237 241 245 250 254 250 242 229 211 200 202 198 188 184 187 185 181 179 180 192 210 217 218 221 226 233 257 331 358 358 355 351 346 345 341 335 331 330 327 328 335 343 345 343 339 336 334 333 331 332 333 333 331 329 327 325 323 322 322 320 318 315 312 309 308 305 303 301 299 297
246 242 238 235 235 236 238 239 238 237 236 237 241 243 242 242 245 246 246 247 243 231 214 193 179 176 178 179 178 178 176 177 184 194 205 210 208 207 211 213 216 11 12 4 357 353 351 349 344 337 332 330 328 329 339 350 352 350 348 344 342 341 339 338 339 339 338 336 333 332 330 327 326 325 323 319 316 313 310 309 307 304 302 300 298
248 245 240 236 234 233 235 237 237 238 237 237 239 239 237 238 238 237 235 232 223 210 196 181 171 169 171 172 173 173 175 180 189 191 189 188 189 193 199 198 38 18 10 0 355 354 352 347 339 332 331 330 327 333 348 356 355 353 353 351 349 347 344 343 343 341 340 339 337 335 333 330 328 328 325 321 317 315 313 311 309 307 305 303 300
243 243 241 237 233 230 231 234 236 236 235 234 234 233 230 227 224 221 218 212 203 191 181 174 171 171 170 167 166 170 176 175 171 167 166 169 175 184 194 224 355 1 358 354 353 351 347 341 334 330 329 325 325 337 353 359 358 356 354 352 350 349 347 345 344 343 343 342 340 338 334 332 332 331 328 323 320 318 316 314 311 310 309 307 304
234 233 234 234 232 229 230 232 233 234 234 233 230 225 219 214 211 207 201 194 188 180 173 168 167 167 166 165 163 164 164 160 154 155 160 168 180 197 222 266 322 339 344 347 349 347 344 337 327 322 320 319 326 345 359 0 358 356 353 351 350 349 348 346 344 344 345 344 342 339 336 335 336 335 331 326 323 320 318 316 313 311 309 308 306
225 222 217 214 219 224 226 228 231 235 236 230 222 213 206 203 200 197 190 183 177 171 165 161 160 159 160 162 161 160 160 161 163 168 175 185 201 223 242 262 294 321 333 341 346 348 344 328 313 313 315 317 330 351 360 359 356 354 352 350 349 349 348 347 345 344 344 343 342 340 338 338 341 339 335 331 327 323 320 318 315 311 308 308 308
207 207 202 197 197 208 214 218 226 232 226 214 205 200 199 197 191 186 181 175 168 162 157 154 152 150 151 153 157 164 173 181 186 192 198 204 215 233 248 258 276 303 321 331 340 346 340 317 305 308 312 316 333 351 357 356 355 352 350 351 350 349 348 347 346 344 343 343 343 341 339 340 344 344 340 336 331 328 325 322 317 313 310 310 312
186 190 191 189 191 199 204 207 211 214 210 203 196 193 192 186 180 174 169 164 159 155 151 148 148 150 153 159 169 181 191 193 193 198 205 211 223 240 250 259 275 297 312 323 332 337 328 310 303 308 312 317 334 350 354 353 352 351 350 351 351 349 348 348 346 345 345 345 345 343 341 343 346 346 343 339 335 333 330 326 320 315 311 310 313
170 176 181 185 190 196 200 200 198 198 198 195 189 183 178 171 165 160 158 157 157 156 153 151 152 156 163 173 185 194 198 198 196 200 206 216 230 243 251 259 273 290 307 319 327 328 319 304 299 303 309 320 338 351 352 351 351 350 350 352 352 350 349 347 346 347 349 349 348 345 344 345 347 346 345 343 340 337 334 329 324 320 314 310 311
156 162 172 183 190 191 189 188 187 185 182 178 171 165 160 154 150 151 153 157 160 161 162 163 167 172 178 187 195 199 200 198 197 201 209 219 228 239 252 262 270 288 310 321 325 325 315 297 286 291 306 322 338 348 350 351 352 351 351 352 352 352 351 349 348 351 353 351 349 348 346 346 348 348 346 346 344 342 338 333 330 327 323 316 313
152 158 168 176 179 176 171 168 166 161 155 151 149 147 145 143 145 148 153 158 161 165 171 177 182 187 192 197 199 198 196 195 199 207 219 227 231 238 252 262 272 294 314 319 319 322 314 292 277 284 302 319 335 344 348 352 353 352 352 353 353 353 352 350 351 354 354 352 351 350 347 346 348 349 348 348 348 347 344 340 335 330 326 321 314
146 150 153 153 149 144 139 136 135 135 135 137 139 140 142 144 148 152 156 159 164 170 177 181 186 192 197 199 197 195 196 201 210 220 228 233 234 238 245 256 272 296 312 316 319 321 309 290 283 290 304 322 337 343 347 352 354 353 354 356 356 354 352 351 352 354 354 352 351 351 349 347 348 349 350 350 351 351 352 350 345 335 326 318 311
118 121 122 122 121 121 121 123 126 130 134 137 141 143 146 151 156 160 161 163 167 172 176 179 183 188 192 194 196 198 204 214 223 231 236 237 235 232 236 249 272 296 310 320 332 328 303 286 288 299 311 328 341 346 350 354 354 353 355 358 358 357 355 354 355 357 358 355 353 352 351 349 347 349 352 354 355 358 0 1 359 353 343 331 321
106 109 112 114 117 119 122 126 130 135 138 141 143 147 153 159 164 167 168 169 172 175 177 178 182 186 191 196 203 209 217 226 231 234 236 233 221 215 223 246 278 297 305 326 336 311 294 294 303 312 323 338 347 351 355 356 354 353 356 0 1 359 358 359 1 4 4 0 356 354 353 351 348 349 353 356 360 4 7 9 11 12 9 1 352
104 108 112 117 121 125 128 130 133 136 139 142 145 149 155 161 166 171 175 178 180 181 182 185 190 195 201 207 211 215 220 226 229 228 223 208 194 198 217 249 278 274 274 300 289 282 293 310 322 329 338 350 356 358 359 358 355 354 357 1 2 1 1 4 7 9 9 6 1 358 356 354 351 351 355 0 6 10 14 16 19 21 24 26 28
105 109 113 117 122 126 129 133 136 140 145 149 151 155 161 167 172 177 181 185 186 187 189 194 201 207 211 215 218 221 222 223 222 217 209 195 190 199 217 246 254 237 243 260 269 288 314 332 340 344 352 1 6 5 2 359 356 355 358 2 3 3 4 7 11 13 13 11 8 4 1 358 354 354 359 6 12 16 19 21 23 25 28 32 37
105 108 110 115 122 129 136 142 147 152 157 161 164 167 172 176 178 180 184 187 190 194 199 206 213 219 222 223 222 222 222 220 214 208 201 195 196 202 207 214 223 235 247 259 277 314 342 349 345 345 356 8 12 8 3 1 359 357 359 3 4 5 7 10 13 16 18 17 14 11 8 4 0 360 5 13 18 21 23 25 27 28 28 31 34